BSAT-4B

Last updated on Mon Oct 14 2024 00:02:41 GMT+0000 (Coordinated Universal Time)

1 46112U 20056A 24287.51368874 -.00000352 00000+0 00000+0 0 9991 2 46112 0.0918 104.9834 0003641 66.2025 146.1625 1.00269568 15253
UTC large
Height (km)
Speed (km/s)
/
Latitude / Longitude
Inclination (degrees)
Orbital Period (minutes)
Azimuth
Elevation
Range (km)
Doppler Factor

Next 0 passes for location: London (51.5072 / 0.1276)

Sorry there are no passes over London.